Flag for Switzerland Weather past 2 weeks in Grenchen, Solothurn, Switzerland

Now
64 °F

Mild.


Feels Like: 64 °F
Forecast: 44 / 58 °F
Wind: 2 mph from Southwest

Location: Grenchen

Current Time: May 25, 2015 at 11:52:17 AM

Latest Report: May 25, 2015 at 11:00 AM


Visibility: N/A

Pressure: 29.99 "Hg

Humidity: 60%

Dew point: 50 °F

Location of GrenchenLocation

Historic Weather in Grenchen — Graph

°F

Grenchen temperature yesterday

Maximum temperature yesterday: 69 °F (at 4:00 PM)
Minimum temperature yesterday: 50 °F (at 3:00 AM)
Average temperature yesterday: 59 °F

Past Weeks' High & Low Weather Summary

 TemperatureHumidityPressure
High83 °F (May 13, 5:00 PM)100% (May 12, 7:00 AM)30.37 "Hg (May 12, 7:00 AM)
Low38 °F (May 22, 5:00 AM)30% (May 13, 4:00 PM)29.73 "Hg (May 18, 8:00 PM)
Average57 °F70%30.09 "Hg
* Reported May 10 10:00 AM — May 25 10:00 AM, Grenchen, Weather by CustomWeather, © 2015

Note: Actual official high and low records may vary slightly from our data, if they occured in-between our weather recording intervals... More about our weather records

Advertising

Grenchen weather history for previous 24 hours

 ConditionsComfort  
Time TempWeatherWind HumidityBarometerVisibility
10:00 AM
Mon, May 25
61 °FCool.1 mph66%30.01 "HgN/A
9:00 AM57 °FCool.No wind78%30.03 "HgN/A
8:00 AM56 °FCool.1 mph84%30.03 "HgN/A
7:00 AM54 °FCool.No wind91%30.04 "HgN/A
6:00 AM53 °FCool.2 mph93%30.04 "HgN/A
5:40 AM54 °FCool.1 mph92%30.04 "HgN/A
5:00 AM54 °FCool.No wind88%30.04 "HgN/A
4:00 AM54 °FCool.No wind91%30.04 "HgN/A
3:00 AM55 °FCool.No wind88%30.04 "HgN/A
2:00 AM57 °FCool.2 mph78%30.04 "HgN/A
1:00 AM57 °FCool.1 mph78%30.05 "HgN/A
12:00 AM59 °FCool.2 mph66%30.04 "HgN/A
11:00 PM
Sun, May 24
58 °FCool.5 mph75%30.05 "HgN/A
10:00 PM60 °FCool.3 mph64%30.04 "HgN/A
9:00 PM62 °FRefreshingly cool.3 mph57%30.03 "HgN/A
8:00 PM62 °FRefreshingly cool.5 mph57%30.02 "HgN/A
7:00 PM64 °FMild.9 mph55%30.00 "HgN/A
6:00 PM64 °FMild.8 mph53%30.01 "HgN/A
5:00 PM67 °FMild.17 mph47%29.99 "HgN/A
4:00 PM69 °FMild.15 mph40%30.00 "HgN/A
3:00 PM68 °FMild.15 mph45%30.01 "HgN/A
2:00 PM66 °FMild.16 mph47%30.02 "HgN/A
1:00 PM67 °FMild.17 mph48%30.02 "HgN/A
12:00 PM65 °FMild.14 mph50%30.03 "HgN/A
11:00 AM64 °FMild.13 mph54%30.03 "HgN/A
Weather by CustomWeather, © 2015

See weather overviewHow to use our weather pages